Lexington Weather

Lexington, Massachusetts, USA

68°F
9/23/2021 5:41am 
  • Lexington Conditions: Mostly cloudy
  • Temperature: 67.5°F / 19.7°CWarmer 0.4°F than last hour.
  • Dew Point: 66.6°FIncreased 0.4°Fsince last hour.
  • Relative Humidity: 97
  • Wind: Calm, 10-min avg: Calm, gust: 4 mph
  • Barometer: 30.03 in Steady
  • Visibility: 10 miles
  • Rain Today: 0.00 in
  •   

Regional Weather Roundup
for Boston / Norton, MA

        
000
ASUS41 KBOX 191405
RWRBOX

REGIONAL WEATHER ROUNDUP
NATIONAL WEATHER SERVICE BOSTON/NORTON MA
1000 AM EDT SUN SEP 19 2021

NOTE:  "FAIR" INDICATES FEW OR NO CLOUDS BELOW 12,000 FEET WITH NO 
SIGNIFICANT WEATHER AND/OR OBSTRUCTIONS TO VISIBILITY.

MAZALL-191500-
EASTERN MASSACHUSETTS
  
CITY           SKY/WX    TMP DP  RH WIND       PRES   REMARKS
BOSTON         MOSUNNY   69  52  54 N14       30.15R                  
BEVERLY        SUNNY     66  53  63 N12       30.15R                  
LAWRENCE       SUNNY     66  52  60 N12       30.18R                  
BEDFORD        SUNNY     66  54  65 N13       30.15R                  
BLUE HILL      NOT AVBL                                               
NORWOOD        SUNNY     68  53  58 N9        30.14R                  
MARSHFIELD     SUNNY     66  55  68 VRB6G18   30.14R                  
PLYMOUTH       SUNNY     67  55  65 N17G26    30.13R                  
TAUNTON        MOSUNNY   67  54  63 VRB7      30.13R                  
NEW BEDFORD    MOSUNNY   69  57  65 N8G18     30.11R                  
$$

MAZALL-191500-
CAPE COD AND THE ISLANDS
  
CITY           SKY/WX    TMP DP  RH WIND       PRES   REMARKS
FALMOUTH       SUNNY     66  55  68 NE10      30.11R                  
HYANNIS        SUNNY     68  57  68 N17G26    30.09R                  
CHATHAM        SUNNY     67  56  67 N8G17     30.11R                  
PROVINCETOWN   SUNNY     66  56  70 N17G24    30.12R                  
NANTUCKET      MOSUNNY   70  59  68 N22       30.09R                  
MARTHAS VNYRD  SUNNY     69  59  70 NE20G25   30.10R                  
$$
 
MAZALL-191500-
CENTRAL AND WESTERN MASSACHUSETTS
  
CITY           SKY/WX    TMP DP  RH WIND       PRES   REMARKS
WORCESTER      SUNNY     65  50  58 NE9       30.17R                  
FITCHBURG      SUNNY     67  48  50 N8        30.18R                  
ORANGE         SUNNY     65  49  56 N12       30.19R                  
SPRINGFIELD    MOSUNNY   66  49  54 N10       30.16R                  
WESTFIELD      SUNNY     68  51  54 N10       30.17R                  
NORTH ADAMS    SUNNY     61  53  75 VRB3      30.21R                  
PITTSFIELD     SUNNY     64  50  60 NE9       30.19R                  
$$
 
RIZALL-191500-
RHODE ISLAND
  
CITY           SKY/WX    TMP DP  RH WIND       PRES   REMARKS
PROVIDENCE     MOSUNNY   69  57  65 N13       30.14R                  
NEWPORT        MOSUNNY   66  57  72 N14       30.12R                  
BLOCK ISLAND   MOSUNNY   66  58  75 NE17G23   30.13R                  
SMITHFIELD     SUNNY     65  55  70 NE9       30.16R                  
WESTERLY       SUNNY     67  55  65 N9G18     30.12R                  
$$
 
CTZALL-191500-
CONNECTICUT
  
CITY           SKY/WX    TMP DP  RH WIND       PRES   REMARKS
BRADLEY INTL   MOSUNNY   67  50  54 N10       30.17R                  
HARTFORD       SUNNY     67  50  54 N13       30.16R                  
BRIDGEPORT     SUNNY     70  50  49 N16G22    30.15R                  
DANBURY        SUNNY     69  51  52 N12       30.19R                  
GROTON         SUNNY     69  56  62 N9G18     30.12R                  
NEW HAVEN      SUNNY     70  52  52 NE15G23   30.15R                  
CHESTER        FAIR      70  55  60 N9G15     30.15R                  
MERIDEN        SUNNY     68  49  50 N14       30.16R                  
WILLIMANTIC    SUNNY     67  51  56 N12       30.16R                  
OXFORD         SUNNY     65  50  58 N14       30.18R                  
$$

MEZ002-015-021-024-NHZ003-005-008-011-012-014-VTZ005-008-191500-
NORTHERN NEW ENGLAND
  
CITY           SKY/WX    TMP DP  RH WIND       PRES   REMARKS
PORTLAND ME    MOSUNNY   62  49  62 N13G20    30.17R                  
BANGOR ME      SUNNY     62  47  57 N15       30.15R                  
CONCORD NH     SUNNY     65  51  60 VRB5      30.18R                  
MANCHESTER NH  MOSUNNY   67  50  54 NE8       30.16R                  
NASHUA NH      SUNNY     65  54  67 VRB7      30.18R                  
PORTSMOUTH NH  MOSUNNY   66  47  50 N8        30.17R                  
JAFFREY NH     SUNNY     64  50  60 VRB5      30.19R                  
KEENE NH       SUNNY     64  51  62 N9        30.19S                  
BURLINGTON VT  PTSUNNY   58  50  75 N7        30.26R                  
MT. WASHINGTON MOSUNNY   39  25  56 N29         N/A  WCI  28          
$$

NYZ052-076-191500-
EASTERN NEW YORK
  
CITY           SKY/WX    TMP DP  RH WIND       PRES   REMARKS
ALBANY         MOSUNNY   59  53  80 N12       30.23R                  
NEW YORK CITY  MOSUNNY   70  52  52 N13       30.16R                  
$$
 
ANZALL-191500-
MARINE OBSERVATIONS
  
STATION/POSITION TIME  TEMP    WIND        PRES    VSBY  WAVE
                       AIR SEA DIR/SP/G                  HT/PER
                 (UTC) (F)     (DEG/KT/KT) (MB)    (MI)  (FT/S)
BOSTON BUOY      1340      66   10/ 17/ 21 1020.7R
BUZZARDS BAY     1300           10/ 20/ 21 1020.0R
NANTUCKET SOUND  1350   67 73   10/ 17/ 21 1019.0R         2/ 4
MASS BAY-STELLWA 1304   63      20/ 17/ 21 1019.7R  1 5/8  6/ 5
ISLE OF SHOALS   1300   60      10/ 19/ 21 1020.2R
S OF BLOCK IS    1326      71                N/A           5/10
$$

......................KEY.........................
  SKY/WX - SKY CONDITION/PRESENT WEATHER
  TMP    - TEMPERATURE IN FAHRENHEIT
  DWPT   - DEWPOINT IN FAHRENHEIT
  RH     - RELATIVE HUMIDITY IN PERCENT
  WIND   - DIRECTION AND SPEED IN MPH
  PRES   - MEAN SEA LEVEL PRESSURE IN INCHES OF HG
  WCI    - WIND CHILL INDEX
  VSB    - VISIBILITY IN MILES
  HX     - HEAT INDEX
  TC     - TEMPERATURE IN CELSIUS
  VRB    - VARIABLE WIND DIRECTION
  N/A    - NOT AVAILABLE
  
      

Other recent Regional Weather Roundups

Thu Sep 23, 5:04am

Thu Sep 23, 4:04am

Thu Sep 23, 3:04am

Thu Sep 23, 2:04am

Thu Sep 23, 1:04am

Thu Sep 23, 12:04am

Wed Sep 22, 11:04pm

Wed Sep 22, 10:04pm

Wed Sep 22, 9:04pm

Wed Sep 22, 8:04pm

Wed Sep 22, 7:04pm

Wed Sep 22, 6:04pm

Wed Sep 22, 5:04pm

Wed Sep 22, 4:04pm

Wed Sep 22, 3:04pm

Wed Sep 22, 2:04pm

Wed Sep 22, 1:04pm

Wed Sep 22, 12:05pm

Wed Sep 22, 11:04am

Wed Sep 22, 10:04am

Wed Sep 22, 9:04am

Wed Sep 22, 8:04am

Wed Sep 22, 7:04am

Wed Sep 22, 6:04am

Wed Sep 22, 5:04am

Wed Sep 22, 4:04am

Wed Sep 22, 3:04am

Wed Sep 22, 2:04am

Wed Sep 22, 1:04am

Wed Sep 22, 12:04am

Tue Sep 21, 11:04pm

Tue Sep 21, 10:04pm

Tue Sep 21, 9:04pm

Tue Sep 21, 8:04pm

Tue Sep 21, 7:04pm

Tue Sep 21, 6:04pm

Tue Sep 21, 5:04pm

Tue Sep 21, 4:04pm

Tue Sep 21, 3:04pm

Tue Sep 21, 2:04pm

Tue Sep 21, 1:04pm

Tue Sep 21, 12:04pm

Tue Sep 21, 11:04am

Tue Sep 21, 10:04am

Tue Sep 21, 9:04am

Tue Sep 21, 8:04am

Tue Sep 21, 7:04am

Tue Sep 21, 6:04am

Tue Sep 21, 5:04am

Tue Sep 21, 4:04am

Tue Sep 21, 3:04am

Tue Sep 21, 2:04am

Tue Sep 21, 1:04am

Tue Sep 21, 12:04am

Mon Sep 20, 11:04pm

Mon Sep 20, 10:04pm

Mon Sep 20, 9:04pm

Mon Sep 20, 8:04pm

Mon Sep 20, 7:04pm

Mon Sep 20, 6:04pm

Mon Sep 20, 5:04pm

Mon Sep 20, 4:04pm

Mon Sep 20, 3:04pm

Mon Sep 20, 2:04pm

Mon Sep 20, 1:04pm

Mon Sep 20, 12:04pm

Mon Sep 20, 11:04am

Mon Sep 20, 10:04am

Mon Sep 20, 9:04am

Mon Sep 20, 7:04am

Mon Sep 20, 6:04am

Mon Sep 20, 5:04am

Mon Sep 20, 4:04am

Mon Sep 20, 3:04am

Mon Sep 20, 2:04am

Mon Sep 20, 1:04am

Mon Sep 20, 12:04am

Sun Sep 19, 11:04pm

Sun Sep 19, 10:04pm

Sun Sep 19, 9:04pm

Sun Sep 19, 8:04pm

Sun Sep 19, 7:04pm

Sun Sep 19, 6:04pm

Sun Sep 19, 5:04pm

Sun Sep 19, 4:04pm

Sun Sep 19, 3:04pm

Sun Sep 19, 2:05pm

Sun Sep 19, 1:04pm

Sun Sep 19, 12:04pm

Sun Sep 19, 11:04am

Sun Sep 19, 9:04am

Sun Sep 19, 8:04am

Sun Sep 19, 7:04am

Sun Sep 19, 6:04am

Sun Sep 19, 5:04am

Sun Sep 19, 4:04am

Sun Sep 19, 3:04am

Sun Sep 19, 2:04am

Sun Sep 19, 1:04am

Sun Sep 19, 12:04am

Sat Sep 18, 11:05pm

Sat Sep 18, 10:04pm

Sat Sep 18, 9:04pm

Sat Sep 18, 8:04pm

Sat Sep 18, 7:04pm

Sat Sep 18, 6:04pm

Sat Sep 18, 5:04pm

Sat Sep 18, 4:04pm

Sat Sep 18, 3:04pm

Sat Sep 18, 2:04pm

Sat Sep 18, 1:04pm

Sat Sep 18, 12:04pm

Sat Sep 18, 11:04am

Sat Sep 18, 10:04am

Sat Sep 18, 9:04am

Sat Sep 18, 8:04am

Sat Sep 18, 7:04am

Sat Sep 18, 6:04am

Sat Sep 18, 5:04am

Sat Sep 18, 4:04am

Sat Sep 18, 3:04am

Sat Sep 18, 2:04am

Sat Sep 18, 1:04am

Sat Sep 18, 12:04am

Fri Sep 17, 11:04pm

Fri Sep 17, 10:04pm

Fri Sep 17, 9:04pm

Fri Sep 17, 8:04pm

Fri Sep 17, 7:04pm

Fri Sep 17, 6:04pm

Fri Sep 17, 5:04pm

Fri Sep 17, 4:04pm

Fri Sep 17, 3:04pm

Fri Sep 17, 2:04pm

Fri Sep 17, 1:04pm

Fri Sep 17, 12:05pm

Fri Sep 17, 11:04am

Fri Sep 17, 10:04am

Fri Sep 17, 9:04am

Fri Sep 17, 8:04am

Fri Sep 17, 7:04am

Fri Sep 17, 6:04am

Fri Sep 17, 5:04am

Fri Sep 17, 4:04am

Fri Sep 17, 3:04am

Fri Sep 17, 2:04am

Fri Sep 17, 1:04am

Fri Sep 17, 12:04am

Thu Sep 16, 11:04pm

Thu Sep 16, 10:04pm

Thu Sep 16, 9:04pm

Thu Sep 16, 8:04pm

Thu Sep 16, 7:04pm

Thu Sep 16, 6:04pm

Thu Sep 16, 5:04pm

Thu Sep 16, 4:04pm

Thu Sep 16, 3:04pm

Thu Sep 16, 2:04pm

Thu Sep 16, 1:05pm

Thu Sep 16, 12:04pm

Thu Sep 16, 11:05am

Thu Sep 16, 10:05am

Thu Sep 16, 9:04am

Thu Sep 16, 8:04am

Thu Sep 16, 7:04am

Thu Sep 16, 6:04am

Meta data:

ID: 2d545ae4-2b0c-4337-9367-8bf6a2ffba70
Link: https://api.weather.gov/products/2d545ae4-2b0c-4337-9367-8bf6a2ffba70